St. Johns, AZ

1:54 PM MST on April 26, 2017 (GMT -0700)
Saint Johns Industrial

Weather History for KSJN - February, 2013

Change the Weather History Date:

Thursday, February 21, 2013

  Actual Average (KLSB) Record (KLSB)
Temperature  
Mean Temperature 26 °F -  
Max Temperature 34 °F 62 °F 77 °F (2016)
Min Temperature 18 °F 26 °F 28 °F (2014)
Degree Days  
Heating Degree Days 39    
Moisture  
Dew Point 21 °F    
Average Humidity 71    
Maximum Humidity 94    
Minimum Humidity 52    
Precipitation  
Precipitation 0.01 in - - ()
Sea Level Pressure  
Sea Level Pressure 29.83 in    
Wind  
Wind Speed 16 mph (WSW)    
Max Wind Speed 22 mph    
Max Gust Speed 31 mph    
Visibility 8 miles    
Events Snow    
Averages and records for this station are not official NWS values.
T = Trace of Precipitation, MM = Missing Value Source: NWS Daily Summary

Daily Weather History Graph

Daily Weather History Graph

Search for Another Location

Airport or City:

Trip Planner

Search our weather history database for the weather conditions in past years. The results will help you decide how hot, cold, wet, or windy it might be!

Date:

Astronomy

Feb. 21, 2013 Rise Set
Actual Time 6:55 AM MST 6:06 PM MST
Civil Twilight 6:30 AM MST 6:32 PM MST
Nautical Twilight 6:01 AM MST 7:01 PM MST
Astronomical Twilight 5:31 AM MST 7:30 PM MST
Moon 2:30 PM MST (2/21) 3:56 AM MST (2/21)
Length of Visible Light 12h 01m
Length of Day
11h 10m
Waxing Gibbous, 84% of the Moon is Illuminated
Feb 21
Waxing Gibbous
Feb 25
Full
Mar 4
Last Quarter
Mar 11
New
Mar 19
First Quarter

Hourly Weather History & Observations

Time (MST) Temp. Windchill Dew Point Humidity Pressure Visibility Wind Dir Wind Speed Gust Speed Precip Events Conditions
12:10 AM 24.8 °F 11.1 °F 21.2 °F 86% 29.72 in 0.8 mi SW 18.4 mph 31.1 mph 0.00 in Snow Light Snow
12:34 AM 24.8 °F 10.3 °F 21.2 °F 86% 29.72 in 1.2 mi SW 20.7 mph 26.5 mph 0.00 in Snow Light Snow
12:54 AM 25.0 °F 10.9 °F 21.0 °F 85% 29.69 in 1.2 mi WSW 19.6 mph 25.3 mph 0.00 in Snow Light Snow
1:07 AM 24.8 °F 11.5 °F 21.2 °F 86% 29.72 in 1.5 mi WSW 17.3 mph 24.2 mph 0.00 in Snow Light Snow
1:19 AM 26.6 °F 13.4 °F 21.2 °F 80% 29.72 in 2.5 mi WSW 18.4 mph 26.5 mph 0.00 in Snow Light Snow
1:31 AM 26.6 °F 12.4 °F 21.2 °F 80% 29.72 in 3.0 mi WSW 21.9 mph 28.8 mph 0.00 in Snow Light Snow
1:54 AM 28.0 °F 14.9 °F 19.9 °F 72% 29.70 in 9.0 mi West 19.6 mph - 0.00 in Snow Light Snow
2:22 AM 28.4 °F - 19.4 °F 69% 29.74 in 10.0 mi North - - 0.00 in   Overcast
2:50 AM 28.4 °F 18.0 °F 19.4 °F 69% 29.75 in 10.0 mi WSW 12.7 mph 21.9 mph 0.00 in   Overcast
2:54 AM 28.0 °F 18.1 °F 19.9 °F 72% 29.73 in 10.0 mi WSW 11.5 mph - 0.00 in   Overcast
3:54 AM 26.1 °F 15.6 °F 18.0 °F 71% 29.76 in 10.0 mi WSW 11.5 mph - 0.00 in   Mostly Cloudy
4:54 AM 24.1 °F 10.6 °F 17.1 °F 75% 29.81 in 10.0 mi SW 17.3 mph 24.2 mph N/A   Partly Cloudy
5:54 AM 23.0 °F 10.1 °F 16.0 °F 74% 29.84 in 10.0 mi WSW 15.0 mph - N/A   Clear
6:54 AM 23.0 °F 11.1 °F 16.0 °F 74% 29.86 in 10.0 mi SW 12.7 mph - N/A   Overcast
7:54 AM 28.0 °F 17.0 °F 19.9 °F 72% 29.87 in 10.0 mi SW 13.8 mph - N/A   Overcast
8:54 AM 28.9 °F 19.2 °F 21.0 °F 72% 29.90 in 10.0 mi SW 11.5 mph - N/A   Overcast
9:54 AM 30.9 °F 20.2 °F 21.9 °F 69% 29.90 in 10.0 mi WSW 15.0 mph - N/A   Overcast
10:54 AM 34.0 °F 25.0 °F 23.0 °F 64% 29.88 in 10.0 mi WSW 12.7 mph - N/A   Mostly Cloudy
11:54 AM 37.0 °F 28.1 °F 25.0 °F 62% 29.87 in 10.0 mi West 15.0 mph - N/A   Overcast
12:54 PM 39.0 °F 31.8 °F 27.0 °F 62% 29.85 in 10.0 mi WNW 11.5 mph - N/A   Mostly Cloudy
1:54 PM 39.9 °F 32.1 °F 25.0 °F 55% 29.82 in 10.0 mi WSW 13.8 mph - N/A   Mostly Cloudy
2:54 PM 37.9 °F 29.2 °F 23.0 °F 55% 29.82 in 10.0 mi WSW 15.0 mph - N/A   Overcast
3:54 PM 37.0 °F 27.7 °F 21.9 °F 54% 29.83 in 10.0 mi WSW 16.1 mph 21.9 mph N/A   Overcast
4:54 PM 36.0 °F 25.3 °F 19.9 °F 52% 29.84 in 10.0 mi WSW 19.6 mph 24.2 mph N/A   Mostly Cloudy
5:54 PM 34.0 °F 23.0 °F 19.9 °F 56% 29.88 in 10.0 mi WSW 18.4 mph - N/A   Scattered Clouds
6:54 PM 33.1 °F 23.4 °F 21.0 °F 61% 29.91 in 10.0 mi SW 13.8 mph - N/A   Overcast
7:54 PM 32.0 °F 21.6 °F 21.9 °F 66% 29.91 in 10.0 mi WSW 15.0 mph - N/A   Overcast
8:54 PM 30.9 °F 21.7 °F 21.0 °F 67% 29.93 in 10.0 mi WSW 11.5 mph - N/A   Mostly Cloudy
9:54 PM 30.0 °F 21.1 °F 19.9 °F 66% 29.93 in 10.0 mi WSW 10.4 mph - N/A   Mostly Cloudy
10:54 PM 28.9 °F 21.1 °F 19.9 °F 69% 29.94 in 10.0 mi WSW 8.1 mph - N/A   Mostly Cloudy
11:54 PM 28.0 °F 20.8 °F 19.9 °F 72% 29.93 in 10.0 mi SW 6.9 mph - N/A   Overcast